Погода в Умиужаке

Канада     56°33′04″N   76°32′40″W
темп.,
°C
ветер,
м/с
пор.,
м/с
влажн.,
%
обл.,
%
осадки,
мм/ч
давл.,
гПа
погр.,
м
25 февраля, чт
чт2501:00−25зсз33100100 0.1 101283
04:00−27зсз33100100 0.1 101449
07:00−30з22100100 0.1 101520
10:00−28зюз3398100 0.0 1014255
13:00−27зюз4693100 0.0 1014451
16:00−27зюз3695100 0.0 1015404
19:00−29ююз3399100 0.0 101429
22:00−29ююз45100100 0.0 1014100
26 февраля, пт
пт2601:00−29ю469998 0.1 1012109
04:00−28юв449594 0.0 101069
07:00−23ююв5119897 0.3 1006313
10:00−17ююз61296100 1.3 1005677
13:00−12ююз71194100 2.3 1001766
16:00−10юз61094100 1.3 1000840
19:00−11ююз2296100 2.1 99927
22:00−11сз1196100 0.7 99822
27 февраля, сб
сб2701:00−18ссз5697100 0.8 998121
04:00−20ссз6898100 0.6 1000215
07:00−23с6897100 1.4 1003301
10:00−26ссз5784100 0.2 1006310
13:00−29сз568783 0.2 1011273
16:00−31сз35910 0.0 1015283
19:00−34з23971 0.0 101919
22:00−35зюз229925 0.0 102219
28 февраля, вс
вс2801:00−36юз229953 0.0 102422
04:00−36ююз3310091 0.0 102530
07:00−34ю359696 0.0 1025179
10:00−32ю3489100 0.0 1024285
13:00−29юв2384100 0.0 1021269
16:00−26всв2382100 0.0 1018200
19:00−24всв3489100 0.0 1015129
22:00−23св4896100 0.2 1010255
1 марта, пн
пн101:00−22ссв4895100 0.5 1005312
04:00−23ссв61092100 0.1 1003347
07:00−23с71195100 0.3 1002402
10:00−24ссз71192100 0.2 1003468
13:00−25ссз71292100 0.3 1004511
16:00−26сз71294100 0.0 1007554
19:00−30сз61097100 0.1 1010297
22:00−32зсз4599100 0.0 101199